Regional Weather Roundup
Issued by NWS Jackson, KY

Home | Current Version | Previous Version | Text Only | Print | Product List | Glossary Off
Versions: 1 2 3 4 5 6 7 8 9 10 11 12 13 14 15 16 17 18 19 20 21 22 23 24 25 26 27 28 29 30 31 32 33 34 35 36 37 38 39 40 41 42 43 44 45 46 47 48 49 50

000
ASUS43 KJKL 011311
RWRJKL

EAST KENTUCKY HOURLY WEATHER ROUNDUP
NATIONAL WEATHER SERVICE JACKSON KY
900 AM EDT WED OCT 01 2014

NOTE: "FAIR" INDICATES FEW OR NO CLOUDS BELOW 12,000 FEET WITH
NO SIGNIFICANT WEATHER AND/OR OBSTRUCTIONS TO VISIBILITY.

* THESE REPORTS ARE NOT UNDER NWS QUALITY CONTROL AND MAY NOT
  REPORT WEATHER SUCH AS PRECIPITATION AND FOG.

KYZ079-080-083-085-087-088-110-112-115-119-120-011400
...EASTERN KENTUCKY...

CITY           SKY/WX    TMP DP  RH WIND       PRES   REMARKS
JACKSON        FOG       58  57  97 CALM      30.02R VSB<1/4
LONDON         MOSUNNY   57  54  89 SE3       30.02R
SOMERSET*      MOSUNNY   55  55 100 CALM      30.02S
MONTICELLO*    SUNNY     58  57  96 CALM      30.02S FOG
MIDDLESBORO*   FOG       53  53 100 CALM      30.05S VSB 1/4
HARLAN APT*    CLOUDY    54  54 100 NE6       30.05R VSB<1/4
HAZARD APT*    FOG       55  55 100 CALM      30.03R VSB 0
BLACK MTN*       N/A     61  52  72 S1          N/A
PIKEVILLE APT* FOG       57  57 100 CALM      30.03R VSB 0
BIG SANDY*     FOG       59  59 100 CALM      30.02S VSB 1
MOREHEAD APT*  FOG       59  57  94 CALM      30.03S VSB 1/4
$$

KYZ035-036-041-042-044-050-067-078-099-011400
...CENTRAL KENTUCKY...

CITY           SKY/WX    TMP DP  RH WIND       PRES   REMARKS
MT STERLING*   FOG       59  59 100 CALM      30.02S VSB 1/2
FLEMING/MASON* FOG       52  52 100 CALM      30.03R VSB 3/4
DANVILLE*      FOG       55  55 100 CALM      30.02R VSB<1/4
RICHMOND*      CLOUDY    57  55  94 CALM      30.01R VSB<1/4
LEXINGTON      FOG       59  57  93 E6        30.01R VSB 1/4
FRANKFORT      CLOUDY    55  51  86 VRB3      30.00R
$$

KYZ091>093-OHZ055-061-077-WVZ005-015-034-035-042-011400
...SOUTHERN OHIO/WEST VIRGINIA...

CITY           SKY/WX    TMP DP  RH WIND       PRES   REMARKS
COVINGTON      SUNNY     54  50  86 E5        30.02R
COLUMBUS       CLOUDY    56  52  86 CALM      30.02R
DAYTON         FOG       51  51 100 E5        30.05R VSB 1/8
WILMINGTON     FOG       51  50  96 SE6       30.03R VSB<1/4
HUNTINGTON     CLOUDY    60  57  89 CALM      30.01R
CHARLESTON     CLOUDY    62  58  86 CALM      30.01R FOG
PINEVILLE*     CLOUDY    56  56 100 MISG      30.09R FOG
BECKLEY        SUNNY     61  54  77 CALM      30.05R
BLUEFIELD      SUNNY     63  53  70 W6        30.07R
$$

VAZ002-007-008-TNZ017-027-036-066-071-011400
...SOUTHWEST VIRGINIA/EAST TENNESSEE...

CITY           SKY/WX    TMP DP  RH WIND       PRES   REMARKS
WISE*          SUNNY     61  52  72 SW3       30.08R
JONESVILLE*    SUNNY     54  52  94 CALM      30.07R
ABINGDON*      SUNNY     59  57  91 E3        30.06R
BRISTOL        MOSUNNY   57  53  86 CALM      30.05R FOG
KNOXVILLE      PTSUNNY   59  56  89 CALM      30.02R FOG
OAK RIDGE      FOG       57  56  96 E3        30.04R VSB 1/2
CROSSVILLE     PTSUNNY   60  54  80 CALM      30.05R
NASHVILLE      PTSUNNY   60  56  86 CALM      29.99R
$$

...KEY TO REMARKS...
VSB - VISIBILITY IN MILES
WCI - WIND CHILL INDEX
HX  - HEAT INDEX

$$


USA.gov is the U.S. government's official web portal to all federal, state and local government web resources and services.